Theta_e
291 293 293 294 294 294 295 295 295 295 294 294 294 292 290 290 290 290 288 288 288 287 287 287 287 287 286 285 285 284 284 283 285 281 281 281 280 280 280 280 280 280 280
289 291 291 291 293 293 294 294 294 294 294 294 293 291 290 289 288 288 287 287 287 286 286 285 285 285 285 284 284 283 282 282 282 282 280 279 279 279 280 280 280 280 280
289 289 290 290 290 290 292 293 293 293 293 292 293 291 289 288 288 288 287 286 286 286 285 285 284 284 283 283 282 282 281 281 280 280 279 279 279 280 281 280 280 280 280
288 288 289 289 289 289 290 291 292 292 291 291 291 291 290 290 289 287 287 286 286 285 285 285 285 285 283 282 282 281 280 279 278 278 278 277 278 278 278 278 279 278 278
287 288 288 288 288 288 289 289 290 291 291 290 290 290 289 288 288 286 286 286 285 284 284 284 284 285 284 284 282 280 280 278 277 277 277 277 278 278 278 278 278 278 278
287 287 287 286 286 287 287 288 289 289 290 290 289 288 288 288 287 286 286 285 284 284 283 283 283 284 284 283 282 282 282 279 277 277 278 278 278 279 278 278 278 278 279
286 287 287 286 284 284 286 286 287 288 288 288 288 288 287 287 286 286 285 285 284 283 283 282 281 281 282 281 281 281 280 279 280 279 278 278 279 278 278 278 278 278 278
285 286 286 283 283 283 284 285 286 286 287 287 286 286 286 286 286 286 286 285 284 283 282 282 281 280 281 281 280 280 279 279 279 279 280 280 279 278 278 278 278 277 275
283 285 281 279 282 283 283 284 285 284 285 285 286 286 285 285 285 286 287 284 283 282 282 281 281 280 281 280 280 280 280 279 281 281 280 279 278 279 279 278 276 274 273
282 280 278 278 281 283 282 282 283 284 283 284 284 284 285 284 284 286 287 285 283 282 280 280 279 279 280 280 279 280 279 279 279 278 278 279 279 278 277 275 274 273 273
279 277 277 277 278 278 280 281 281 283 282 282 282 283 283 283 283 285 287 285 282 281 279 278 279 279 280 281 279 278 278 278 277 277 277 276 276 275 273 273 272 272 272
276 275 275 274 274 275 277 280 281 281 281 281 282 282 281 282 282 283 286 287 282 280 280 279 278 280 281 281 280 277 278 278 277 277 275 274 273 272 272 272 272 271 272
273 272 272 272 272 273 274 277 280 281 280 281 280 280 280 279 280 282 283 287 282 280 279 279 279 281 281 282 281 279 279 278 276 275 273 273 272 272 271 271 271 271 270
270 270 269 269 270 271 272 275 279 280 280 280 280 280 279 278 279 279 282 286 282 281 279 279 280 281 281 281 281 281 278 277 276 274 273 272 271 271 271 270 270 270 270
268 267 267 267 268 269 271 273 276 279 280 280 281 280 280 278 278 279 282 286 282 279 279 279 280 280 280 278 279 278 277 276 275 272 271 270 270 270 270 270 269 269 269
265 265 265 265 266 267 268 270 272 276 280 281 282 282 280 280 279 280 282 285 282 279 278 278 279 280 276 276 274 272 273 273 271 270 270 269 269 269 269 269 268 268 268
263 263 263 264 264 266 267 268 271 273 278 280 281 283 283 280 281 281 282 285 282 280 278 278 278 277 275 274 273 272 271 270 270 269 269 269 268 268 268 268 268 268 268
262 262 262 262 263 264 265 267 269 272 274 278 279 281 284 284 281 281 282 284 282 281 278 277 275 274 273 272 271 270 269 269 268 268 268 268 268 268 267 267 267 267 267
261 261 262 262 263 263 264 266 267 268 270 276 278 279 282 283 283 282 282 283 282 280 276 275 273 273 272 271 270 270 269 268 268 268 268 268 267 267 267 267 266 266 266
261 261 262 262 262 263 264 265 266 268 271 276 277 278 279 281 283 281 281 282 283 277 274 273 272 272 270 269 269 269 268 267 267 267 267 268 267 267 267 267 266 266 266
263 263 263 263 263 264 264 265 266 268 272 276 276 277 278 280 281 280 280 281 274 273 271 271 270 269 269 269 270 268 268 267 267 267 268 268 268 268 267 267 266 265 265
264 264 264 264 264 264 265 266 267 268 273 274 275 276 278 280 279 278 275 271 270 271 272 271 270 270 270 270 269 268 267 267 267 267 268 268 268 268 267 267 267 266 266
265 266 267 267 265 265 266 267 268 272 274 274 275 276 276 272 271 269 269 269 269 270 271 271 270 269 269 269 268 268 268 268 268 268 268 268 268 268 268 267 267 266 266
265 267 268 268 267 267 268 269 272 273 274 272 270 269 268 267 267 266 266 267 269 269 270 270 270 269 268 267 267 267 267 267 267 267 268 268 269 269 268 268 267 266 266
264 265 266 267 268 269 268 269 269 268 267 266 266 265 265 264 264 265 265 267 267 268 268 268 267 267 267 267 267 267 267 267 267 267 268 268 268 268 268 268 267 267 266
263 264 264 265 266 266 266 266 265 265 265 264 264 264 263 263 263 263 265 266 267 267 266 266 266 266 266 266 266 266 267 267 267 267 268 268 268 268 268 268 268 268 266
Wind_Speed
35 36 30 31 32 32 36 39 41 39 40 42 44 47 49 51 53 53 49 49 49 47 47 45 42 38 35 31 28 26 23 21 9 8 13 13 14 14 12 12 11 11 14
35 34 32 28 31 33 37 39 40 40 41 42 43 44 46 47 49 51 48 50 52 48 46 40 41 40 37 35 34 32 30 27 18 11 12 11 12 11 12 12 12 13 15
37 34 34 32 29 30 38 39 39 37 40 43 44 44 42 45 48 50 48 45 48 47 47 49 43 43 41 40 37 34 32 29 25 15 11 10 9 12 13 13 14 15 18
34 35 33 34 35 31 31 33 36 39 39 43 45 44 46 49 49 49 48 46 47 45 47 49 48 49 45 44 41 38 33 28 23 17 11 9 11 10 9 8 11 10 15
29 27 30 36 38 37 32 29 32 37 39 40 40 42 43 46 47 46 47 44 43 42 47 49 50 50 50 48 45 40 37 30 25 19 13 10 9 8 11 6 12 10 15
25 25 27 30 34 37 36 31 26 32 37 40 39 38 41 44 40 43 44 44 43 45 46 48 46 50 49 47 44 40 41 41 30 21 18 16 17 15 12 11 11 7 5
26 27 26 29 32 35 36 34 25 24 29 36 36 37 40 41 38 41 41 38 39 44 44 43 41 44 46 42 34 33 34 34 33 35 26 19 16 17 12 11 10 10 15
25 24 25 32 33 31 33 32 32 24 24 30 31 34 35 37 34 39 44 42 39 36 38 42 43 42 46 43 36 29 29 30 27 28 26 21 17 12 11 9 11 13 15
24 23 32 36 34 33 32 33 31 27 23 25 26 29 31 31 29 37 40 39 36 38 39 38 40 42 45 37 39 33 28 28 26 24 25 20 15 11 9 11 14 7 6
23 25 31 29 29 32 33 34 31 27 27 24 25 27 28 30 27 34 42 35 32 32 32 34 41 43 45 41 40 37 30 31 30 26 20 16 15 15 14 13 12 10 7
25 30 30 29 29 31 33 32 32 29 26 26 24 23 24 27 28 30 40 34 31 31 31 32 39 38 41 41 36 38 35 27 26 26 24 20 18 15 13 10 9 10 8
29 31 31 33 33 31 31 33 30 26 21 25 22 21 23 25 26 28 37 40 31 30 30 31 35 38 39 39 34 30 25 22 28 23 20 16 14 14 11 8 9 10 11
29 30 33 33 34 33 30 31 29 23 22 20 18 18 18 20 25 28 29 37 30 26 26 29 31 38 37 37 33 27 26 27 25 23 16 13 14 10 8 7 8 9 11
32 33 32 32 34 33 30 28 27 25 23 19 19 18 17 16 19 20 25 34 29 26 23 26 30 33 33 32 32 28 30 28 25 20 18 15 11 9 8 6 6 8 10
34 35 33 31 31 30 29 27 28 29 27 24 24 23 19 20 24 24 24 28 30 29 26 25 30 32 31 29 28 33 31 27 24 21 18 16 13 11 8 3 5 7 8
36 34 31 29 28 28 27 31 29 33 34 34 34 30 26 29 19 26 30 25 30 34 31 27 24 25 23 26 25 23 25 23 19 18 15 12 10 8 4 2 5 6 11
34 34 32 30 28 25 24 23 19 26 26 31 32 33 33 23 22 24 30 31 34 37 25 27 25 26 25 24 25 26 24 25 25 20 16 14 10 7 4 4 4 7 10
34 35 33 30 29 27 26 25 23 20 14 19 23 28 30 28 21 24 28 31 34 37 27 27 26 26 25 27 25 22 21 23 23 17 15 12 9 6 4 3 5 7 12
33 31 31 30 29 29 27 26 25 24 24 24 18 19 22 23 25 23 28 33 28 27 25 26 28 29 28 28 29 28 28 28 24 20 16 12 8 6 3 5 6 9 13
32 33 34 31 29 27 25 24 22 21 22 20 15 15 14 17 20 22 25 29 23 25 27 26 26 25 26 28 29 30 29 25 21 17 14 11 7 4 4 7 8 9 13
31 31 31 29 27 25 24 22 22 21 22 13 13 17 18 18 17 19 19 22 23 27 26 29 28 28 30 32 31 29 26 22 19 15 12 9 6 6 5 8 10 12 13
29 29 28 26 25 23 22 22 22 21 18 11 12 18 18 17 16 15 16 21 26 32 34 34 31 31 34 33 31 27 23 19 16 13 10 7 6 5 6 10 13 14 15
27 27 26 23 22 20 19 20 20 18 10 11 12 13 7 16 21 22 24 27 29 30 30 28 30 31 28 27 25 22 21 19 15 12 11 7 7 5 8 12 15 17 17
24 23 17 11 10 14 15 17 12 10 6 8 13 15 17 18 23 22 25 26 27 27 27 31 31 29 27 24 22 19 16 14 11 10 9 7 5 7 11 15 19 19 22
22 20 18 16 12 9 10 10 11 13 13 14 15 16 18 20 23 26 29 32 34 35 32 29 27 24 22 20 18 14 13 12 8 7 7 6 7 10 15 19 20 22 23
23 21 20 18 17 16 15 14 14 15 15 16 17 18 20 22 24 29 33 34 33 31 28 24 22 19 17 15 14 13 11 9 6 6 6 7 10 14 17 21 22 23 23
Wind_Direction
357 354 332 302 282 268 256 251 246 240 237 233 229 221 216 214 214 214 212 214 217 217 217 214 211 208 206 206 206 206 205 204 198 187 203 218 234 250 274 304 324 332 331
351 349 347 334 308 283 267 258 250 243 239 235 233 226 217 214 212 212 209 212 213 212 213 211 207 207 206 206 205 205 207 204 200 196 212 226 240 265 299 314 328 331 327
350 350 350 349 335 302 282 271 259 248 245 239 229 225 222 217 214 214 212 209 210 211 211 209 204 205 203 203 204 205 207 207 207 202 202 229 264 293 307 312 318 327 325
347 345 347 349 344 330 302 280 269 261 243 238 234 228 224 223 219 215 210 210 213 211 213 213 208 208 205 203 201 203 202 197 200 203 209 229 247 258 269 288 299 297 292
341 339 339 343 342 340 332 306 280 266 256 244 234 230 226 223 220 213 210 206 207 205 211 214 214 214 214 215 204 199 198 190 187 187 200 207 217 210 218 224 250 274 283
333 334 333 342 339 336 333 328 303 274 257 247 239 230 224 224 221 217 210 204 205 205 205 210 213 214 213 216 213 212 209 195 186 188 194 205 210 209 212 223 245 268 302
329 329 332 337 332 330 328 328 321 288 264 244 238 233 231 229 219 212 208 209 208 209 205 200 200 207 208 204 203 205 208 209 216 207 196 201 203 205 202 222 240 249 258
326 327 332 332 325 325 323 323 324 310 274 251 240 235 234 233 221 212 202 206 211 215 210 203 197 196 202 198 191 191 198 201 203 206 214 218 220 214 218 230 253 265 277
321 324 328 327 320 321 321 319 318 311 291 266 252 243 236 237 225 217 202 202 206 207 209 206 202 197 193 185 189 188 192 198 201 205 218 225 218 218 234 236 251 250 262
314 317 318 316 312 312 311 310 309 307 293 279 264 251 242 238 228 218 209 202 201 201 200 202 202 198 192 186 189 187 188 197 198 203 213 215 220 223 223 234 244 230 235
305 312 310 310 306 306 303 301 301 303 299 282 268 260 253 243 232 222 214 208 204 195 191 189 197 196 189 187 192 192 198 195 192 200 202 213 216 226 230 227 224 222 217
305 304 305 305 303 302 299 296 296 293 283 277 270 267 255 248 239 229 223 208 200 196 197 202 196 189 185 184 187 192 187 185 187 190 197 204 210 214 217 224 241 241 242
297 294 297 297 295 295 295 297 289 282 267 261 253 251 245 229 233 234 232 216 197 200 204 198 187 182 180 182 186 182 184 193 188 188 195 206 209 208 221 240 264 284 286
292 291 292 292 293 291 288 284 277 269 267 261 252 250 249 237 229 234 225 216 192 193 189 182 177 175 176 178 181 184 186 192 187 194 202 199 197 209 225 247 282 301 296
290 289 289 286 284 284 281 280 279 267 256 259 254 245 230 224 218 214 220 202 184 179 170 170 174 174 174 169 173 176 182 183 191 203 197 191 192 198 214 243 288 301 287
288 288 286 286 284 281 281 286 276 272 265 257 256 249 243 243 221 211 208 209 178 170 164 170 179 179 166 167 159 154 171 176 187 201 197 199 194 193 205 276 297 295 291
281 284 285 283 281 279 276 277 286 285 271 259 259 252 247 240 225 218 206 206 181 177 177 178 177 172 169 168 169 173 171 177 190 191 189 190 190 191 190 247 307 300 304
281 280 279 277 275 274 273 272 270 273 275 262 252 260 244 239 217 220 213 205 182 186 181 176 171 170 167 165 167 169 163 173 184 183 187 187 185 187 214 279 302 308 307
281 279 276 274 272 270 270 270 270 270 272 271 257 260 254 234 214 211 215 210 189 184 175 170 168 170 170 169 166 169 176 181 184 181 185 185 186 203 240 295 302 302 296
279 274 271 269 269 266 264 264 265 265 266 252 244 244 237 234 200 199 210 216 198 171 164 164 166 170 165 162 166 173 177 178 179 181 181 187 193 204 255 292 310 305 300
280 276 272 269 263 262 262 262 264 266 271 236 238 236 238 221 197 190 202 218 158 152 149 151 158 162 169 174 171 174 174 175 180 179 181 189 203 230 271 295 304 306 301
284 277 272 264 261 258 258 258 262 263 255 229 235 232 242 212 186 174 154 138 140 153 170 173 171 177 174 168 170 172 174 175 180 185 190 202 222 247 288 302 314 310 292
303 295 285 266 252 252 256 256 259 258 231 224 227 225 210 123 129 136 142 148 153 157 164 171 167 158 159 164 170 172 174 179 181 187 202 213 232 270 301 304 306 299 279
321 321 310 289 243 246 251 259 248 236 224 134 119 118 122 123 138 143 146 145 145 145 149 150 152 154 158 161 166 167 169 173 185 199 212 233 250 290 298 298 296 284 284
346 352 3 15 25 32 48 57 65 83 90 97 98 105 115 122 125 135 137 137 136 135 138 143 149 153 156 162 165 169 176 186 200 217 240 250 270 288 292 289 289 295 298
4 9 14 20 27 34 43 50 55 62 71 81 90 100 110 113 120 127 133 133 132 133 138 143 148 152 158 166 176 184 190 196 214 234 256 271 284 290 294 292 297 300 295